Regional Weather Roundup
Issued by NWS

Home | Current Version | Previous Version | Graphics & Text | Print | Product List | Glossary On
Versions: 1 2 3 4 5 6 7 8 9 10 11 12 13 14 15 16 17 18 19 20 21 22 23 24 25 26 27 28 29 30 31 32 33 34 35 36 37 38 39 40 41 42 43 44 45 46 47 48 49 50
000
ASUS43 KMKX 230900
RWRWI

WISCONSIN REGIONAL WEATHER ROUNDUP
NATIONAL WEATHER SERVICE MILWAUKEE/SULLIVAN WI
400 AM CDT TUE MAY 23 2017

NOTE: "FAIR" INDICATES FEW OR NO CLOUDS BELOW 12,000 FEET WITH NO
SIGNIFICANT WEATHER AND/OR OBSTRUCTIONS TO VISIBILITY.

WIZ001-002-006>008-014>016-023>028-231000-
NORTHWEST WISCONSIN

CITY           SKY/WX    TMP DP  RH WIND       PRES   REMARKS
SUPERIOR ARPT  NOT AVBL
ASHLAND        CLOUDY    46  45  96 CALM      29.82R
HAYWARD        MOCLDY    41  40  96 CALM      29.81S
SIREN          LGT RAIN  43  43  97 CALM      29.82R
CUMBERLAND     DRIZZLE   45  43  93 NW3       29.81S
RICE LAKE      DRIZZLE   47  46  93 CALM      29.82S
CHETEK         RAIN      48  47  99 CALM      29.82R
LADYSMITH      CLOUDY    46  44  95 CALM      29.83R
EAU CLAIRE     NOT AVBL
MENOMONIE      LGT RAIN  50  48  93 NW5       29.80S
NEW RICHMOND   DRIZZLE   49  47  96 N3        29.82R
OSCEOLA        DRIZZLE   49  49 100 CALM      29.84S
$$

WIZ003>005-009-010-017-018-231000-
NORTH CENTRAL WISCONSIN

CITY           SKY/WX    TMP DP  RH WIND       PRES   REMARKS
MANITOWISH WTR   N/A     38  38 100 CALM      29.81S FOG
ARBOR VITAE    CLOUDY    42  40  96 CALM      29.80S
WOODRUFF       CLOUDY    42  40  96 CALM      29.80S
RHINELANDER    CLOUDY    45  43  93 NE3       29.81F
EAGLE RIVER    CLOUDY    40  40 100 CALM      29.81S FOG
LAND O LAKES   CLOUDY    40  40 100 CALM      29.83S
PHILLIPS       CLOUDY    40  40 100 CALM      29.80S
TOMAHAWK       DRIZZLE   41  40  97 CALM      29.81S
MEDFORD        CLOUDY    47  43  84 E3        29.79S
MERRILL        LGT RAIN  45  45 100 CALM      29.81S
$$

WIZ029-030-035-036-043>047-231000-
CENTRAL WISCONSIN

CITY           SKY/WX    TMP DP  RH WIND       PRES   REMARKS
WAUSAU         LGT RAIN  47  46  97 E5        29.78F
MOSINEE        RAIN      46  46 100 NE5       29.80F
MARSHFIELD     CLOUDY    48  46  93 NE9       29.75F
STEVENS POINT  LGT RAIN  48  48 100 NE8       29.78F
WAUPACA        DRIZZLE   53  48  84 NE7       29.78S
WAUTOMA        CLOUDY    51  50  96 N7        29.76S
WISC RAPIDS    CLOUDY    51  48  89 E9G17     29.76F
CAMP DOUGLAS   NOT AVBL
$$

WIZ011>013-019>022-031-037>040-048>050-231000-
NORTHEAST WISCONSIN

CITY           SKY/WX    TMP DP  RH WIND       PRES   REMARKS
ANTIGO         CLOUDY    47  44  91 E3        29.80F
SHAWANO        CLOUDY    52  47  83 E6        29.80F
OCONTO         PTCLDY    42  42  99 CALM      29.80F
STURGEON BAY   PTCLDY    48  44  86 E5        29.81F
GREEN BAY      CLOUDY    52  46  80 E8        29.78F
MANITOWOC      NOT AVBL
APPLETON       LGT RAIN  50  43  76 E3        29.78R
CLINTONVILLE   CLOUDY    50  45  81 NE5       29.78F
OSHKOSH        CLOUDY    57  54  89 E6        29.74F
$$

WIZ032>034-041-042-053>061-231000-
SOUTHWEST WISCONSIN

CITY           SKY/WX    TMP DP  RH WIND       PRES   REMARKS
LA CROSSE      CLOUDY    55  54  96 CALM      29.76S
SPARTA         FOG       46  46 100 CALM      29.77S VSB 1/4
VIROQUA        CLOUDY    51  51 100 MISG      29.76F VSB 1/2
BOSCOBEL       FOG       53  52  96 CALM      29.76F VSB 1/2
PRAIRIE DU CHI CLOUDY    50  49  97 CALM      29.76S FOG
PLATTEVILLE    CLOUDY    55  55 100 S10       29.77S
$$

WIZ056-057-062-063-064-067-068-231000-
SOUTH CENTRAL WISCONSIN

CITY           SKY/WX    TMP DP  RH WIND       PRES   REMARKS
REEDSBURG      CLOUDY    53  53 100 CALM      29.75F
BARABOO/DELLS  FOG       50  48  94 CALM      29.75S VSB 1
LONE ROCK      FOG       52  51  97 CALM      29.76S VSB 1/2
MINERAL POINT  CLOUDY    55  55 100 SW8       29.77R
MADISON        MOCLDY    54  54 100 S7        29.75F
MIDDLETON      PTCLDY    54  54 100 SE3       29.76F
WATERTOWN      CLOUDY    55  55 100 SE3       29.77F
MONROE         MOCLDY    52  52 100 S7        29.78S
JANESVILLE     CLEAR     55  55 100 S7        29.78S
$$

WIZ051-052-058>065-066-070>072-231000-
SOUTHEAST WISCONSIN

CITY           SKY/WX    TMP DP  RH WIND       PRES   REMARKS
MILWAUKEE      CLOUDY    59  55  87 SW8       29.79F
WAUKESHA       CLOUDY    54  52  94 S5        29.80F
MILWAUKEE/TIMM   N/A     55  52  88 SW8       29.80F
RACINE         CLOUDY    57  53  86 SW7       29.81F
KENOSHA        CLOUDY    59  53  80 S9        29.80F
FOND DU LAC    CLOUDY    56  52  86 E7        29.75F
SHEBOYGAN      CLOUDY    54  52  93 CALM      29.78F
WEST BEND      MOCLDY    54  54 100 CALM      29.78F
JUNEAU         MOCLDY    54  53  97 SE8       29.77F
$$

LSZ147-162-231000-
LAKE SUPERIOR

STATION/POSITION TIME  TEMP    WIND        PRES    WAVE
                       AIR SEA DIR/SP/G            HT/PER
                 (UTC) (F)     (DEG/KT/KT) (MB)    (FT/S)
W MID LAKE BUOY  0750   40 37  240/  4/  4 1010.2F   1
DEVILS ISLAND    0800   46     330/  6/  7 1009.9F
PORT WING        0840   45      CALM  /  1 1009.8S
SAXON HARBOR     0840   47      CALM  /  1 1009.1S
$$

LMZ867-665-643>646-231000-
LAKE MICHIGAN

STATION/POSITION TIME  TEMP    WIND        PRES    WAVE
                       AIR SEA DIR/SP/G            HT/PER
                 (UTC) (F)     (DEG/KT/KT) (MB)    (FT/S)
CHAMBERS ISLAND  0830   41        CALM     1009.1F
N MID LAKE BUOY  0750   43 39  250/  4/  4 1011.2F   2/ 5
NORTHPORT PIER   0840   44     210/  1/  2 1009.5F
SISTER BAY       0806   43        CALM       N/A
KEWAUNEE LAKESHO 0830   49      40/  4/  7 1008.9F
SHEBOYGAN LAKESH 0800   51     350/  7/  8 1008.6F
PORT WASHINGTON  0840   52     170/  2/  2 1009.1F
ATWATER BUOY     0709   52     180/  6/  8 1009.6F
MILWAUKEE LAKESH 0830   59     230/  6/  7   N/A
S MID LAKE BUOY  0750   49 45  200/  8/ 10 1010.5F   1/ 4
KENOSHA   LAKESH 0800   59     210/  5/  8 1009.5
$$

TC  - TEMPERATURE IN CELSIUS
VSB - VISIBILITY IN STATUTE MILES
WCI - WIND CHILL INDEX
HX  - HEAT INDEX




USA.gov is the U.S. government's official web portal to all federal, state and local government web resources and services.